AUA72 HECA-LOWW

Flight info

Callsign AUA72
Flight time N/A
Altitude 34000
Route MENKU L617 NOZ L551 ANTAR DCT RIGRO/N0450F360 DCT EVIVI L863 OKANA DCT PARAK DCT BALUX DCT TORNO DCT NATEX NATEX2W
Aircraft A320/M-SDE3FGHIRWY/LB1

Departure

Time 2026-04-27 09:40
Airport Cairo International Airport (HECA)

Arrival

Time N/A
Airport Vienna International Airport (LOWW)
Time Latitude Longitude Altitude Speed Heading
2026-04-27 09:08 30.10822 31.40017 374 ft 0 kts 255°
2026-04-27 09:30 30.10823 31.40019 374 ft 2 kts 255°
2026-04-27 09:30 30.10830 31.40048 374 ft 4 kts 255°
2026-04-27 09:30 30.10837 31.40078 374 ft 3 kts 255°
2026-04-27 09:30 30.10843 31.40102 374 ft 4 kts 238°
2026-04-27 09:31 30.10862 31.40122 374 ft 4 kts 199°
2026-04-27 09:31 30.10886 31.40128 374 ft 2 kts 189°
2026-04-27 09:31 30.10887 31.40128 374 ft 0 kts 189°
2026-04-27 09:33 30.10879 31.40134 374 ft 3 kts 123°
2026-04-27 09:33 30.10915 31.40208 374 ft 14 kts 50°
2026-04-27 09:33 30.10965 31.40292 374 ft 11 kts 79°
2026-04-27 09:33 30.10948 31.40373 374 ft 10 kts 109°
2026-04-27 09:34 30.10925 31.40449 374 ft 13 kts 108°
2026-04-27 09:34 30.10941 31.40563 374 ft 15 kts 51°
2026-04-27 09:34 30.11005 31.40649 374 ft 13 kts 49°
2026-04-27 09:34 30.11064 31.40729 374 ft 14 kts 49°
2026-04-27 09:35 30.11071 31.40819 374 ft 11 kts 121°
2026-04-27 09:35 30.11072 31.40896 374 ft 12 kts 54°
2026-04-27 09:35 30.11150 31.41001 374 ft 21 kts 49°
2026-04-27 09:35 30.11244 31.41125 374 ft 20 kts 49°
2026-04-27 09:36 30.11339 31.41251 374 ft 24 kts 49°
2026-04-27 09:36 30.11460 31.41412 374 ft 27 kts 49°
2026-04-27 09:36 30.11586 31.41577 374 ft 28 kts 48°
2026-04-27 09:36 30.11713 31.41748 374 ft 28 kts 49°
2026-04-27 09:37 30.11843 31.41922 374 ft 29 kts 49°
2026-04-27 09:37 30.11976 31.42098 374 ft 29 kts 50°
2026-04-27 09:37 30.12107 31.42273 374 ft 28 kts 50°
2026-04-27 09:37 30.12238 31.42448 374 ft 29 kts 49°
2026-04-27 09:38 30.12361 31.42611 374 ft 26 kts 49°
2026-04-27 09:38 30.12469 31.42775 374 ft 25 kts 72°
2026-04-27 09:38 30.12394 31.42920 374 ft 22 kts 168°
2026-04-27 09:38 30.12251 31.42856 370 ft 24 kts 229°
2026-04-27 09:39 30.12142 31.42715 370 ft 24 kts 229°
2026-04-27 09:39 30.11933 31.42435 372 ft 78 kts 230°
2026-04-27 09:39 30.11448 31.41789 375 ft 133 kts 229°
2026-04-27 09:39 30.10738 31.40844 416 ft 171 kts 234°
2026-04-27 09:40 30.10003 31.39844 1119 ft 164 kts 232°
2026-04-27 09:40 30.09253 31.38824 1655 ft 167 kts 234°
2026-04-27 09:40 30.08492 31.37788 2231 ft 177 kts 234°
2026-04-27 09:40 30.07662 31.36626 2595 ft 199 kts 234°
2026-04-27 09:41 30.06709 31.35298 2956 ft 224 kts 232°
2026-04-27 09:41 30.05662 31.33844 3375 ft 247 kts 234°
2026-04-27 09:41 30.04516 31.32265 3878 ft 262 kts 234°
2026-04-27 09:41 30.03360 31.30606 4611 ft 267 kts 242°
2026-04-27 09:42 30.02707 31.28630 5351 ft 264 kts 266°
2026-04-27 09:42 30.02828 31.26542 6078 ft 262 kts 290°
2026-04-27 09:42 30.03707 31.24710 6755 ft 263 kts 314°
2026-04-27 09:42 30.05107 31.23360 7547 ft 262 kts 324°
2026-04-27 09:43 30.06562 31.22087 8368 ft 263 kts 324°
2026-04-27 09:43 30.08019 31.20809 9203 ft 264 kts 324°
2026-04-27 09:43 30.09484 31.19522 9996 ft 265 kts 324°
2026-04-27 09:43 30.10468 31.18656 10261 ft 276 kts 324°
2026-04-27 09:44 30.12058 31.17253 10407 ft 299 kts 323°
2026-04-27 09:44 30.14349 31.15223 10585 ft 327 kts 323°
2026-04-27 09:44 30.16180 31.13599 11055 ft 335 kts 323°
2026-04-27 09:44 30.17435 31.12486 11450 ft 338 kts 323°
2026-04-27 09:45 30.19307 31.10828 12082 ft 341 kts 323°
2026-04-27 09:45 30.21194 31.09153 12703 ft 344 kts 323°
2026-04-27 09:45 30.23100 31.07459 13294 ft 348 kts 323°
2026-04-27 09:45 30.25028 31.05744 13888 ft 351 kts 323°
2026-04-27 09:46 30.26975 31.04014 14424 ft 354 kts 323°
2026-04-27 09:46 30.28937 31.02276 14979 ft 356 kts 323°
2026-04-27 09:46 30.30909 31.00528 15540 ft 358 kts 323°
2026-04-27 09:46 30.32894 30.98767 16097 ft 361 kts 323°
2026-04-27 09:47 30.34888 30.96992 16648 ft 363 kts 323°
2026-04-27 09:47 30.36894 30.95201 17180 ft 366 kts 323°
2026-04-27 09:47 30.38917 30.93393 17701 ft 369 kts 323°
2026-04-27 09:47 30.40956 30.91575 18237 ft 371 kts 323°
2026-04-27 09:48 30.43011 30.89743 18711 ft 374 kts 323°
2026-04-27 09:48 30.45073 30.87902 19179 ft 375 kts 323°
2026-04-27 09:48 30.47147 30.86050 19639 ft 377 kts 322°
2026-04-27 09:48 30.49230 30.84185 20098 ft 379 kts 322°
2026-04-27 09:49 30.51321 30.82311 20543 ft 381 kts 322°
2026-04-27 09:49 30.53422 30.80429 21004 ft 383 kts 322°
2026-04-27 09:49 30.55538 30.78536 21420 ft 385 kts 322°
2026-04-27 09:49 30.57665 30.76635 21837 ft 387 kts 322°
2026-04-27 09:50 30.59803 30.74724 22244 ft 389 kts 322°
2026-04-27 09:50 30.61947 30.72803 22653 ft 390 kts 322°
2026-04-27 09:50 30.64099 30.70872 23040 ft 392 kts 322°
2026-04-27 09:50 30.66262 30.68928 23419 ft 394 kts 322°
2026-04-27 09:51 30.68435 30.66978 23747 ft 396 kts 322°
2026-04-27 09:51 30.70619 30.65020 24043 ft 397 kts 322°
2026-04-27 09:51 30.72812 30.63051 24331 ft 399 kts 322°
2026-04-27 09:51 30.75016 30.61068 24613 ft 401 kts 321°
2026-04-27 09:52 30.77228 30.59078 24889 ft 403 kts 321°
2026-04-27 09:52 30.79454 30.57077 25158 ft 405 kts 321°
2026-04-27 09:52 30.81687 30.55065 25424 ft 407 kts 321°
2026-04-27 09:52 30.83932 30.53042 25686 ft 409 kts 321°
2026-04-27 09:53 30.86187 30.51010 25962 ft 411 kts 321°
2026-04-27 09:53 30.88449 30.48969 26213 ft 413 kts 321°
2026-04-27 09:53 30.90724 30.46914 26459 ft 414 kts 321°
2026-04-27 09:53 30.93056 30.44930 26695 ft 417 kts 324°
2026-04-27 09:54 30.95488 30.43075 26925 ft 419 kts 326°
2026-04-27 09:54 30.97950 30.41259 27157 ft 420 kts 326°
2026-04-27 09:54 31.00436 30.39459 27369 ft 422 kts 326°
2026-04-27 09:54 31.02947 30.37651 27560 ft 424 kts 326°
2026-04-27 09:55 31.05464 30.35834 27758 ft 426 kts 326°
2026-04-27 09:55 31.07984 30.34004 27960 ft 428 kts 326°
2026-04-27 09:55 31.13037 30.30289 28357 ft 430 kts 325°
2026-04-27 09:56 31.15566 30.28416 28604 ft 430 kts 325°
2026-04-27 09:56 31.18093 30.26548 28897 ft 429 kts 326°
2026-04-27 09:56 31.20613 30.24688 29177 ft 428 kts 325°
2026-04-27 09:56 31.23128 30.22832 29451 ft 428 kts 325°
2026-04-27 09:57 31.25642 30.20977 29713 ft 427 kts 325°
2026-04-27 09:57 31.28154 30.19124 29986 ft 427 kts 325°
2026-04-27 09:57 31.30662 30.17273 30223 ft 426 kts 325°
2026-04-27 09:57 31.33168 30.15419 30448 ft 426 kts 325°
2026-04-27 09:58 31.35668 30.13567 30666 ft 425 kts 325°
2026-04-27 09:58 31.38168 30.11713 30879 ft 425 kts 325°
2026-04-27 09:58 31.40667 30.09860 31065 ft 426 kts 325°
2026-04-27 09:58 31.43171 30.08003 31258 ft 426 kts 325°
2026-04-27 09:59 31.45673 30.06144 31495 ft 426 kts 325°
2026-04-27 09:59 31.48173 30.04287 31714 ft 425 kts 325°
2026-04-27 09:59 31.50670 30.02429 31929 ft 425 kts 325°
2026-04-27 09:59 31.53165 30.00572 32141 ft 425 kts 324°
2026-04-27 10:00 31.55658 29.98716 32354 ft 425 kts 324°
2026-04-27 10:00 31.58153 29.96859 32567 ft 424 kts 324°
2026-04-27 10:00 31.60643 29.95007 32783 ft 424 kts 324°
2026-04-27 10:00 31.63130 29.93155 32991 ft 424 kts 324°
2026-04-27 10:01 31.65618 29.91301 33192 ft 423 kts 324°
2026-04-27 10:01 31.68104 29.89445 33397 ft 423 kts 324°
2026-04-27 10:01 31.70588 29.87589 33602 ft 423 kts 324°
2026-04-27 10:01 31.73073 29.85733 33806 ft 423 kts 324°
2026-04-27 10:02 31.75555 29.83879 33999 ft 424 kts 324°
2026-04-27 10:02 31.78043 29.82019 34030 ft 425 kts 324°
2026-04-27 10:02 31.83035 29.78273 34027 ft 428 kts 324°
2026-04-27 10:03 31.88095 29.74477 34026 ft 434 kts 324°
2026-04-27 10:03 31.93211 29.70642 34029 ft 438 kts 324°
2026-04-27 10:04 31.98361 29.66769 34027 ft 441 kts 324°
2026-04-27 10:04 32.03537 29.62866 34029 ft 442 kts 324°
2026-04-27 10:05 32.08730 29.58947 34028 ft 444 kts 324°
2026-04-27 10:05 32.13940 29.55015 34029 ft 445 kts 324°
2026-04-27 10:06 32.19150 29.51079 34029 ft 445 kts 324°
2026-04-27 10:06 32.24370 29.47132 34038 ft 445 kts 324°
2026-04-27 10:07 32.29588 29.43172 34040 ft 446 kts 324°
2026-04-27 10:07 32.34806 29.39211 34042 ft 446 kts 324°
2026-04-27 10:08 32.40021 29.35247 34049 ft 446 kts 324°
2026-04-27 10:08 32.45236 29.31275 34044 ft 446 kts 324°
2026-04-27 10:09 32.50446 29.27303 34041 ft 445 kts 324°
2026-04-27 10:09 32.55647 29.23330 34029 ft 444 kts 324°
2026-04-27 10:10 32.60832 29.19364 34029 ft 443 kts 324°
2026-04-27 10:10 32.66016 29.15397 34029 ft 444 kts 324°